Regional Weather Roundup
Issued by NWS New Orleans/Baton Rouge, LA

Home | Current Version | Previous Version | Text Only | Print | Product List | Glossary On
Versions: 1 2 3 4 5 6 7 8 9 10 11 12 13 14 15 16 17 18 19 20 21 22 23 24 25 26 27 28 29 30 31 32 33 34 35 36 37 38 39 40 41 42 43 44 45 46 47 48 49 50
245
ASUS44 KLIX 232301
RWRLIX
NEW ORLEANS REGIONAL WEATHER ROUNDUP
NATIONAL WEATHER SERVICE NEW ORLEANS LA
600 PM CDT WED APR 23 2014

NOTE: "FAIR" INDICATES FEW OR NO CLOUDS BELOW 12,000 FEET WITH NO
      SIGNIFICANT WEATHER AND/OR OBSTRUCTIONS TO VISIBILITY.
      SKY/WX - SKY CONDITION AND SIGNIFICANT WEATHER.
      TMP - AIR TEMPERATURE.     DP    - DEWPOINT TEMPERATURE.
      RH  - RELATIVE HUMIDITY.   PRES  - PRESSURE.
      HI  - HEAT INDEX.          WCI   - WIND CHILL INDEX.

*  THESE STATIONS ARE NOT NWS OR FAA STATIONS AND ARE NOT UNDER
   NWS QUALITY CONTROL.

LAZ038-040-048-061>063-065>067-069-240000-
SOUTHEAST LOUISIANA

CITY           SKY/WX    TMP DP  RH WIND       PRES   REMARKS
N.O. AUDUBON     N/A     87  60  38 MISG        N/A
N.O. INTL ARPT MOSUNNY   81  52  36 NW5       29.89S
N.O. LAKEFRONT SUNNY     80  58  46 NW3       29.90F
N.O. DOWNTOWN*   N/A     82  52  34 NE3       29.90S
SLIDELL        SUNNY     81  54  39 SW6       29.88F
BATON ROUGE    SUNNY     85  52  32 CALM      29.87F
BOOTHVILLE     SUNNY     78  61  55 CALM      29.91F
BELLE CHASSE   PTSUNNY   81  60  48 SE8       29.89S
BOGALUSA*        N/A     84  54  35 CALM      29.90S
GALLIANO*      NOT AVBL
NEW ROADS*     NOT AVBL
GONZALES*        N/A     83  54  37 CALM      29.87F
HAMMOND*       NOT AVBL
HOUMA*         MOSUNNY   79  61  53 S6        29.91S
PORT FOURCHON* CLEAR     75  64  69 S9        29.93S

$$

MSZ070-080>082-240000-
SOUTHERN MISSISSIPPI

CITY           SKY/WX    TMP DP  RH WIND       PRES   REMARKS
MCCOMB         SUNNY     82  44  26 CALM      29.89F
GULFPORT       SUNNY     79  62  56 SW7       29.89S
BILOXI         SUNNY     75  66  74 SW10      29.90S
PASCAGOULA     SUNNY     75  63  66 S7        29.90R
STENNIS ARPT*  MOSUNNY   81  57  44 S9        29.89

$$

COASTAL OBSERVATIONS
LAKE AND NEARSHORE STATIONS

STATION/POSITION TIME  TEMP    WIND        PRES    WAVE
                       AIR SEA DIR/SP/G            HT/PER
                 (UTC) (F)     (DEG/KT/KT) (MB)    (FT/S)
PASCAGOULA       2200   75     210/  8/ 10 1012.0
WAVELAND YACHT   2200   75 75  190/  7/  9 1011.5
GRAND ISLE       2200   76 71  200/  6/  9 1013.4
SOUTHWEST PASS   2200   71 61  190/  6/  7 1013.4
NEW CANAL        2200   79 72  340/  3/  4 1012.7
SHELL BEACH      2200   79 71  170/  5/  7 1012.3

OFFSHORE STATIONS

STATION/POSITION TIME  TEMP    WIND        PRES    WAVE
                       AIR SEA DIR/SP/G            HT/PER
                 (UTC) (F)     (DEG/KT/KT) (MB)    (FT/S)
64 S DAUPHIN ISL 2234   72 74   CALM  /  2 1013.0

$$




USA.gov is the U.S. government's official web portal to all federal, state and local government web resources and services.